Weather in Maloye Rybushkino

Russia / Nizhny Novgorod Oblast'     55°25′33″N   45°46′36″E
temp.,
°C
wind,
m/s
gust,
m/s
humid.,
%
clouds,
%
prec.,
mm/h
press.,
hPa
HPBL,
m
14 may, fri
fri1400:00+14sse379387 0.9 1019143
03:00+14s119192 0.9 101911
06:00+16e1187100 0.0 101965
09:00+19ese2275100 0.0 1019447
12:00+22s3363100 0.0 1018940
15:00+25ssw45554 0.0 10181830
18:00+23ssw3567100 0.0 1017143
21:00+19sse2278100 0.0 101711
15 may, sat
sat1500:00+17se2280100 0.0 101722
03:00+16sse3588100 0.4 101674
06:00+18se3781100 0.0 1016198
09:00+22s61058100 0.0 1016585
12:00+25s71348100 0.0 10151057
15:00+26s713476 0.0 10151196
18:00+23s5115894 0.0 1015354
21:00+18s387147 0.0 1015144
16 may, sun
sun1600:00+17s367168 0.0 101491
03:00+15s227228 0.0 101522
06:00+17ssw2475100 0.0 1015142
09:00+21ssw346497 0.0 1015397
12:00+23sw4660100 0.0 1016807
15:00+26ssw575196 0.0 10151577
18:00+23sw366459 0.1 1015208
21:00+18w228220 0.1 101612
17 may, mon
mon1700:00+17w0085100 0.0 101611
03:00+16se118788 0.1 101711
06:00+18ese128338 0.0 101794
09:00+22se22605 0.0 1017465
12:00+26sse344721 0.0 1017969
15:00+28ssw46395 0.0 10161685
18:00+26sse34555 0.0 101662
21:00+20s22595 0.0 101612
18 may, tue
tue1800:00+18sse225649 0.0 101611
03:00+16se2259100 0.0 101616
06:00+19ese2265100 0.0 101551
09:00+24sse48485 0.0 1015462
12:00+27sse67375 0.0 1015943
15:00+28sse574395 0.0 10141740
18:00+24se3762100 0.0 1013152
21:00+19se412655 0.0 1013181